TimeEST,TemperatureF,Dew PointF,Humidity,Sea Level PressureIn,VisibilityMPH,Wind Direction,Wind SpeedMPH,Gust SpeedMPH,PrecipitationIn,Events,Conditions,WindDirDegrees,DateUTC
12:15 AM,21.2,21.2,100,29.91,5.0,West,4.6,-,N/A,,Overcast,270,2013-01-02 05:15:00
12:40 AM,21.2,21.2,100,29.92,5.0,West,3.5,-,N/A,,Overcast,280,2013-01-02 05:40:00
1:00 AM,21.2,21.2,100,29.90,4.0,West,4.6,-,N/A,,Overcast,270,2013-01-02 06:00:00
1:20 AM,21.2,21.2,100,29.89,4.0,West,4.6,-,N/A,,Overcast,280,2013-01-02 06:20:00
1:40 AM,21.2,21.2,100,29.90,3.0,Calm,Calm,-,N/A,,Overcast,0,2013-01-02 06:40:00
2:05 AM,21.2,21.2,100,29.90,1.2,Calm,Calm,-,N/A,,Overcast,0,2013-01-02 07:05:00
2:25 AM,21.2,21.2,100,29.91,2.0,WNW,3.5,-,N/A,,Overcast,290,2013-01-02 07:25:00
2:45 AM,21.2,21.2,100,29.90,3.0,West,3.5,-,N/A,,Overcast,280,2013-01-02 07:45:00
3:10 AM,19.4,19.4,100,29.91,3.0,West,4.6,-,N/A,,Overcast,280,2013-01-02 08:10:00
3:30 AM,19.4,19.4,100,29.91,3.0,WNW,5.8,-,N/A,,Overcast,290,2013-01-02 08:30:00
3:50 AM,19.4,19.4,100,29.92,3.0,West,3.5,-,N/A,,Overcast,280,2013-01-02 08:50:00
4:10 AM,19.4,19.4,100,29.91,5.0,West,5.8,-,N/A,,Overcast,280,2013-01-02 09:10:00
4:35 AM,19.4,19.4,100,29.91,5.0,West,3.5,-,N/A,,Overcast,280,2013-01-02 09:35:00
4:55 AM,19.4,19.4,100,29.92,5.0,West,3.5,-,N/A,,Overcast,280,2013-01-02 09:55:00
5:15 AM,19.4,19.4,100,29.92,4.0,WNW,5.8,-,N/A,,Overcast,290,2013-01-02 10:15:00
6:20 AM,17.6,17.6,100,29.93,4.0,WNW,5.8,-,N/A,,Overcast,290,2013-01-02 11:20:00
6:40 AM,17.6,17.6,100,29.94,5.0,WNW,3.5,-,N/A,,Overcast,290,2013-01-02 11:40:00
7:00 AM,17.6,17.6,100,29.95,7.0,West,5.8,-,N/A,,Overcast,280,2013-01-02 12:00:00
7:25 AM,17.6,17.6,100,29.97,7.0,West,5.8,-,N/A,,Overcast,270,2013-01-02 12:25:00
7:45 AM,17.6,17.6,100,29.98,10.0,West,5.8,-,N/A,,Overcast,280,2013-01-02 12:45:00
8:05 AM,17.6,17.6,100,29.97,7.0,West,4.6,-,N/A,,Overcast,280,2013-01-02 13:05:00
8:50 AM,17.6,17.6,100,29.99,5.0,WNW,4.6,-,N/A,,Overcast,290,2013-01-02 13:50:00
9:10 AM,15.8,15.8,100,29.99,5.0,WNW,4.6,-,N/A,,Overcast,300,2013-01-02 14:10:00
9:30 AM,17.6,17.6,100,29.99,4.0,West,6.9,-,N/A,,Overcast,270,2013-01-02 14:30:00
9:50 AM,17.6,17.6,100,30.01,7.0,West,6.9,-,N/A,,Overcast,270,2013-01-02 14:50:00
10:15 AM,17.6,17.6,100,30.02,10.0,West,4.6,-,N/A,,Overcast,280,2013-01-02 15:15:00
10:35 AM,17.6,17.6,100,30.02,10.0,West,5.8,-,N/A,,Overcast,260,2013-01-02 15:35:00
10:55 AM,17.6,17.6,100,30.02,10.0,West,3.5,-,N/A,,Overcast,270,2013-01-02 15:55:00
11:15 AM,17.6,17.6,100,30.02,10.0,West,5.8,-,N/A,,Overcast,270,2013-01-02 16:15:00
11:40 AM,17.6,17.6,100,30.01,10.0,West,5.8,-,N/A,,Mostly Cloudy,280,2013-01-02 16:40:00
12:00 PM,17.6,17.6,100,30.01,10.0,West,5.8,-,N/A,,Scattered Clouds,280,2013-01-02 17:00:00
12:20 PM,19.4,17.6,93,30.00,10.0,West,4.6,-,N/A,,Scattered Clouds,270,2013-01-02 17:20:00
12:40 PM,19.4,17.6,93,30.01,10.0,West,4.6,-,N/A,,Clear,270,2013-01-02 17:40:00
1:05 PM,19.4,17.6,93,30.00,10.0,WNW,5.8,-,N/A,,Clear,290,2013-01-02 18:05:00
1:25 PM,19.4,15.8,86,30.00,10.0,West,4.6,-,N/A,,Clear,280,2013-01-02 18:25:00
1:45 PM,21.2,17.6,86,30.00,10.0,West,6.9,-,N/A,,Clear,270,2013-01-02 18:45:00
2:05 PM,19.4,15.8,86,30.00,10.0,West,5.8,-,N/A,,Clear,280,2013-01-02 19:05:00
2:30 PM,21.2,14.0,74,29.99,10.0,West,5.8,-,N/A,,Clear,280,2013-01-02 19:30:00
2:50 PM,21.2,14.0,74,30.01,10.0,WNW,5.8,-,N/A,,Clear,290,2013-01-02 19:50:00
3:10 PM,21.2,15.8,80,30.02,10.0,West,6.9,-,N/A,,Clear,280,2013-01-02 20:10:00
3:30 PM,21.2,15.8,80,30.01,10.0,West,5.8,-,N/A,,Clear,270,2013-01-02 20:30:00
3:50 PM,21.2,15.8,80,30.01,10.0,West,4.6,-,N/A,,Clear,280,2013-01-02 20:50:00
4:15 PM,19.4,14.0,80,30.02,10.0,West,4.6,-,N/A,,Clear,270,2013-01-02 21:15:00
4:35 PM,19.4,15.8,86,30.02,10.0,WNW,4.6,-,N/A,,Clear,290,2013-01-02 21:35:00
6:20 PM,17.6,14.0,86,30.04,10.0,WSW,3.5,-,N/A,,Clear,250,2013-01-02 23:20:00
6:40 PM,17.6,15.8,93,30.05,10.0,Calm,Calm,-,N/A,,Clear,0,2013-01-02 23:40:00
7:05 PM,17.6,15.8,93,30.05,10.0,WSW,4.6,-,N/A,,Clear,240,2013-01-03 00:05:00
7:25 PM,17.6,15.8,93,30.05,10.0,WSW,3.5,-,N/A,,Clear,250,2013-01-03 00:25:00
7:45 PM,17.6,15.8,93,30.05,10.0,West,4.6,-,N/A,,Clear,260,2013-01-03 00:45:00
8:05 PM,17.6,15.8,93,30.05,10.0,WSW,3.5,-,N/A,,Clear,250,2013-01-03 01:05:00
8:30 PM,17.6,15.8,93,30.05,10.0,West,4.6,-,N/A,,Clear,270,2013-01-03 01:30:00
8:50 PM,17.6,15.8,93,30.06,10.0,West,3.5,-,N/A,,Clear,260,2013-01-03 01:50:00
9:10 PM,17.6,15.8,93,30.06,10.0,West,3.5,-,N/A,,Clear,270,2013-01-03 02:10:00
9:35 PM,17.6,14.0,86,30.07,10.0,WSW,3.5,-,N/A,,Clear,250,2013-01-03 02:35:00
9:55 PM,17.6,14.0,86,30.08,10.0,WSW,3.5,-,N/A,,Clear,250,2013-01-03 02:55:00
10:15 PM,15.8,15.8,100,30.08,10.0,West,3.5,-,N/A,,Clear,260,2013-01-03 03:15:00
10:35 PM,17.6,15.8,93,30.07,10.0,WSW,3.5,-,N/A,,Clear,250,2013-01-03 03:35:00
11:00 PM,17.6,15.8,93,30.07,10.0,WSW,3.5,-,N/A,,Clear,240,2013-01-03 04:00:00
11:20 PM,17.6,15.8,93,30.08,10.0,Calm,Calm,-,N/A,,Clear,0,2013-01-03 04:20:00
11:40 PM,15.8,15.8,100,30.07,10.0,Calm,Calm,-,N/A,,Clear,0,2013-01-03 04:40:00